Terug naar catalogus

DELTA 1 DEB

ActiefHEO
NORAD 4841·DEBRIS·🇺🇸 United States

Gelanceerd Jul 4, 1968 vanaf Vandenberg Space Force Base

Loading…

Volgende Passages

TLE

Source: Space-Track
1 04841U 68055D   26214.79762495  .00000166  00000-0  28033-3 0  9997
2 04841 120.7176 315.5756 2697825 235.9282 308.4507  9.29285443139764

Volg DELTA 1 DEB in realtime met AllMySat

Download on the App Store